Date String (YYYY-MM-DD hh:mm:ss) UTC,Instrument flags,Ambient pressure (hPa),Sample flow (lpm),Bypass flow (lpm),Sample temperature (°C),Ambient temperature (°C),ASC tube jacket temperature (°C),LED temperature (°C),Box temperature (°C),Sample RH (%),Mass concentration (μg/m³),Mass concentration (μg/m³)
DateTimeUTC,F1_M11,P_M11,Q1_M11,Q2_M11,T1_M11,T2_M11,T3_M11,T4_M11,T5_M11,U1_M11,X0_M11,X2_M11
2021-08-17 09:00:00,,0825.4,5.00,0.00,29.7,28.5,00.0,38.7,31.4,16.1,0031.99,0023.44
2021-08-17 09:01:00,,0825.3,5.01,0.00,29.7,28.6,00.0,38.7,31.5,16.0,0031.09,0023.47
2021-08-17 09:02:00,,0825.3,5.00,0.00,29.7,28.7,00.0,38.7,31.5,15.9,0031.74,0023.53
2021-08-17 09:03:00,,0825.4,5.00,0.00,29.8,28.8,00.0,38.8,31.6,15.8,0032.00,0023.66
2021-08-17 09:04:00,,0825.4,5.00,0.00,29.8,28.8,00.0,38.8,31.6,15.8,0032.18,0023.80
2021-08-17 09:05:00,,0825.4,5.00,0.00,29.8,28.9,00.0,38.8,31.7,15.8,0032.77,0023.99
2021-08-17 09:06:00,,0825.4,4.99,0.00,29.9,28.9,00.0,38.8,31.7,15.8,0033.54,0024.16
2021-08-17 09:07:00,,0825.4,5.00,0.00,29.9,29.0,00.0,38.8,31.7,15.8,0033.53,0024.21
2021-08-17 09:08:00,,0825.4,4.99,0.00,29.9,29.0,00.0,38.9,31.7,16.0,0033.97,0024.35
2021-08-17 09:09:00,,0825.4,5.02,0.00,29.9,29.0,00.0,38.9,31.8,16.4,0034.10,0024.48
2021-08-17 09:10:00,,0825.3,5.00,0.00,29.9,27.5,00.0,38.9,31.3,16.4,0035.19,0024.66
2021-08-17 09:11:00,,0825.4,5.00,0.00,29.7,26.3,00.0,38.9,30.9,16.3,0035.80,0024.80
2021-08-17 09:12:00,,0825.4,5.00,0.00,29.6,26.4,00.0,38.8,31.0,16.2,0035.90,0024.93
2021-08-17 09:13:00,,0825.3,5.00,0.00,29.5,26.8,00.0,38.8,31.0,16.3,0035.48,0025.09
2021-08-17 09:14:00,,0825.3,5.00,0.00,29.5,27.2,00.0,38.8,31.1,16.4,0035.87,0025.16
2021-08-17 09:15:00,,0825.3,5.00,0.00,29.5,27.5,00.0,38.7,31.2,16.4,0036.30,0025.28
2021-08-17 09:16:00,,0825.3,5.01,0.00,29.6,27.8,00.0,38.7,31.3,16.4,0036.16,0025.36
2021-08-17 09:17:00,,0825.4,5.00,0.00,29.6,28.0,00.0,38.7,31.3,16.4,0035.75,0025.44
2021-08-17 09:18:00,,0825.3,4.99,0.00,29.6,28.2,00.0,38.7,31.4,16.4,0036.26,0025.57
2021-08-17 09:19:00,,0825.3,5.00,0.00,29.6,28.3,00.0,38.7,31.4,16.3,0035.91,0025.65
2021-08-17 09:20:00,,0825.4,5.00,0.00,29.7,28.4,00.0,38.7,31.5,16.3,0036.20,0025.75
2021-08-17 09:21:00,,0825.4,5.00,0.00,29.7,28.5,00.0,38.7,31.5,16.3,0035.84,0025.83
2021-08-17 09:22:00,,0825.4,5.01,0.00,29.7,28.6,00.0,38.8,31.6,16.3,0035.38,0025.90
2021-08-17 09:23:00,,0825.4,4.99,0.00,29.8,28.7,00.0,38.8,31.6,16.3,0035.42,0025.99
2021-08-17 09:24:00,,0825.3,5.01,0.00,29.8,28.8,00.0,38.8,31.6,16.2,0035.66,0026.02
2021-08-17 09:25:00,,0825.4,4.99,0.00,29.8,28.8,00.0,38.8,31.7,16.2,0035.45,0026.05
2021-08-17 09:26:00,,0825.3,5.00,0.00,29.8,28.9,00.0,38.8,31.7,16.1,0036.20,0026.08
2021-08-17 09:27:00,,0825.3,5.01,0.00,29.9,28.9,00.0,38.9,31.7,16.1,0037.12,0026.04
2021-08-17 09:28:00,,0825.4,5.00,0.00,29.9,28.9,00.0,38.9,31.7,16.0,0037.67,0025.97
2021-08-17 09:29:00,,0825.4,5.00,0.00,29.9,29.0,00.0,38.9,31.7,15.9,0037.68,0025.91
2021-08-17 09:30:00,,0825.3,5.00,0.00,29.9,29.0,00.0,38.9,31.8,15.8,0037.35,0025.82
2021-08-17 09:31:00,,0825.3,5.00,0.00,29.9,28.1,00.0,38.9,31.5,15.8,0037.93,0025.66
2021-08-17 09:32:00,,0825.4,5.00,0.00,29.8,26.5,00.0,38.9,31.0,16.0,0037.71,0025.42
2021-08-17 09:33:00,,0825.3,5.00,0.00,29.7,26.3,00.0,38.9,31.0,16.1,0037.25,0025.15
2021-08-17 09:34:00,,0825.4,5.00,0.00,29.6,26.7,00.0,38.8,31.1,16.1,0037.03,0024.92
2021-08-17 09:35:00,,0825.3,5.00,0.00,29.5,27.1,00.0,38.8,31.1,16.1,0036.71,0024.74
2021-08-17 09:36:00,,0825.3,4.99,0.00,29.5,27.4,00.0,38.8,31.2,16.1,0036.61,0024.58
2021-08-17 09:37:00,,0825.3,5.00,0.00,29.5,27.7,00.0,38.7,31.2,16.1,0035.57,0024.42
2021-08-17 09:38:00,,0825.3,5.00,0.00,29.6,27.9,00.0,38.7,31.3,16.1,0034.66,0024.31
2021-08-17 09:39:00,,0825.4,4.99,0.00,29.6,28.1,00.0,38.7,31.3,16.1,0034.01,0024.30
2021-08-17 09:40:00,,0825.4,5.01,0.00,29.6,28.2,00.0,38.7,31.4,16.2,0033.71,0024.27
2021-08-17 09:41:00,,0825.3,5.00,0.00,29.7,28.4,00.0,38.7,31.4,16.2,0033.69,0024.26
2021-08-17 09:42:00,,0825.4,4.99,0.00,29.7,28.5,00.0,38.8,31.5,16.4,0032.84,0024.32
2021-08-17 09:43:00,,0825.3,4.99,0.00,29.7,28.6,00.0,38.8,31.5,16.4,0032.74,0024.40
2021-08-17 09:44:00,,0825.3,5.02,0.00,29.7,28.7,00.0,38.8,31.6,16.4,0033.48,0024.54
2021-08-17 09:45:00,,0825.4,4.99,0.00,29.8,28.7,00.0,38.8,31.6,16.3,0033.61,0024.61
2021-08-17 09:46:00,,0825.4,5.00,0.00,29.8,28.8,00.0,38.8,31.6,16.3,0033.65,0024.66
2021-08-17 09:47:00,,0825.4,5.01,0.00,29.8,28.9,00.0,38.8,31.7,16.3,0033.30,0024.74
2021-08-17 09:48:00,,0825.3,4.99,0.00,29.9,28.9,00.0,38.8,31.7,16.2,0033.32,0024.82
2021-08-17 09:49:00,,0825.4,5.00,0.00,29.9,29.0,00.0,38.9,31.8,16.2,0033.17,0024.87
2021-08-17 09:50:00,,0825.3,5.00,0.00,29.9,29.0,00.0,38.9,31.8,16.2,0033.04,0024.85
2021-08-17 09:51:00,,0825.3,5.01,0.00,29.9,29.1,00.0,38.9,31.7,16.2,0033.03,0024.78
2021-08-17 09:52:00,,0825.4,5.00,0.00,30.0,29.1,00.0,38.9,31.8,16.1,0033.46,0024.79
2021-08-17 09:53:00,,0825.4,4.99,0.00,30.0,29.1,00.0,39.0,31.8,16.1,0033.58,0024.80
2021-08-17 09:54:00,,0825.3,5.00,0.00,30.0,28.1,00.0,39.0,31.5,16.1,0033.37,0024.75
2021-08-17 09:55:00,,0825.3,4.99,0.00,29.8,26.5,00.0,38.9,31.1,16.1,0032.84,0024.69
2021-08-17 09:56:00,,0825.3,5.00,0.00,29.7,26.4,00.0,38.9,31.1,16.2,0032.79,0024.69
2021-08-17 09:57:00,,0825.2,5.01,0.00,29.6,26.8,00.0,38.9,31.1,16.4,0033.10,0024.73
2021-08-17 09:58:00,,0825.2,5.00,0.00,29.6,27.2,00.0,38.8,31.2,16.4,0033.19,0024.77
2021-08-17 09:59:00,,0825.3,4.99,0.00,29.6,27.5,00.0,38.8,31.2,16.4,0033.11,0024.71
